Wind_Speed
63 62 60 63 62 60 61 61 61 56 51 49 47 45 42 38 36 36 36 39 36 31 26 27 11 8 7 10 14 10 15 18 17 15 14 12 14 17 19 21 24 24 24 26
66 61 65 65 63 61 58 60 61 58 54 51 47 46 45 45 42 41 40 39 36 34 28 29 21 12 7 10 9 6 13 16 16 12 14 10 9 10 14 18 20 21 21 22
69 68 72 69 66 62 57 59 61 59 55 53 50 48 45 48 48 42 38 40 38 34 30 33 19 17 12 12 11 3 9 14 17 11 12 12 9 7 8 11 15 16 17 19
75 73 74 71 66 63 58 60 59 58 53 50 49 46 44 45 46 44 41 42 41 35 30 31 26 18 18 15 13 7 4 11 18 12 11 11 9 6 5 6 9 11 12 15
76 76 77 75 70 68 64 65 62 58 53 49 48 47 45 42 42 42 42 40 41 42 36 41 39 25 24 19 18 15 6 7 14 17 8 11 10 7 4 5 3 7 7 10
81 80 79 77 77 72 70 66 61 58 55 50 49 47 44 40 39 38 39 38 40 42 39 43 39 34 26 25 24 18 11 10 10 17 10 9 10 9 6 5 4 4 5 6
83 83 81 80 79 74 71 66 62 59 55 52 49 47 45 40 39 37 37 38 39 41 42 38 32 30 29 30 27 26 22 23 21 21 23 13 7 7 7 7 6 6 6 5
84 82 81 80 78 76 76 71 64 59 55 58 50 48 46 39 34 35 36 36 36 37 34 31 29 31 27 29 29 29 30 26 21 25 26 12 15 13 7 6 8 10 10 10
81 78 81 79 79 80 75 71 65 62 59 58 50 54 46 41 39 37 36 37 33 32 38 28 37 34 23 34 29 28 26 22 26 25 25 17 21 14 13 12 9 9 14 13
85 81 82 83 83 83 76 73 70 64 59 56 52 55 48 46 42 39 39 37 33 31 35 41 38 35 31 34 34 32 33 31 29 27 22 20 17 19 18 17 12 11 13 17
91 87 86 83 81 81 79 74 70 65 61 59 57 56 54 49 46 42 42 39 38 32 35 48 45 40 33 34 34 35 33 35 35 29 25 28 27 31 24 23 22 15 20 21
99 94 90 88 88 87 83 77 74 69 64 64 60 58 58 55 50 46 44 43 40 40 36 41 42 45 49 45 39 43 41 39 37 36 35 32 33 37 29 25 28 27 25 22
105 102 98 96 93 90 86 82 79 72 68 63 62 61 61 59 55 51 47 46 45 42 39 37 50 50 48 46 39 45 43 40 33 38 33 35 41 35 27 26 26 24 22 18
111 106 103 100 97 99 95 90 86 81 72 67 62 64 64 62 59 55 53 52 49 44 43 39 41 45 50 47 41 40 45 47 39 37 38 41 36 32 30 32 30 29 26 28
115 112 109 104 104 104 100 97 93 87 80 72 70 68 69 65 64 61 59 58 54 51 48 45 42 44 46 51 47 45 45 48 49 43 41 41 35 33 35 38 35 34 34 36
121 119 114 110 110 108 105 102 100 95 87 79 75 72 74 70 68 66 64 62 59 55 54 50 48 46 53 52 57 57 52 51 45 43 38 36 38 39 37 43 41 39 41 44
116 120 120 116 114 113 110 107 104 99 94 87 82 78 77 76 72 69 67 66 64 63 62 55 53 53 50 58 64 63 58 54 52 41 35 33 42 42 46 47 46 49 48 46
117 114 114 117 121 118 111 109 106 103 99 94 87 84 81 78 76 73 70 69 69 67 69 64 58 58 57 56 56 57 55 49 48 41 39 41 42 44 47 51 50 50 49 51
117 116 113 112 112 113 117 114 111 108 103 98 94 89 85 81 80 75 70 70 72 72 72 71 66 65 63 61 61 56 54 52 53 53 44 46 49 50 50 49 54 53 49 48
113 115 115 113 111 108 107 111 115 112 109 105 99 93 90 86 82 79 76 77 73 72 72 74 73 71 69 68 69 63 62 61 58 60 58 59 60 61 59 57 55 55 55 53
103 110 113 115 113 108 105 105 107 109 108 107 104 99 95 91 86 85 83 82 79 78 75 71 72 71 74 74 68 67 73 71 70 73 72 67 69 65 62 60 60 53 48 48
92 99 107 110 112 110 106 104 104 101 102 104 105 102 101 98 94 93 89 88 88 85 85 88 82 81 82 81 82 81 79 79 80 78 77 73 68 59 61 61 56 57 54 50
76 87 94 102 105 107 108 106 104 102 97 98 99 99 98 98 99 97 96 93 92 91 91 93 91 91 89 88 87 88 86 85 85 85 82 80 77 75 73 69 67 66 64 61
66 70 79 89 96 102 103 105 108 105 104 102 101 98 97 96 97 97 99 97 96 94 93 93 93 94 95 95 94 93 91 89 89 89 88 85 84 82 82 79 74 71 67 65
58 63 65 75 87 95 100 100 103 108 106 109 104 100 98 97 96 96 99 103 101 99 95 94 94 93 95 97 98 98 96 94 94 93 91 88 87 83 83 82 79 73 69 66
51 56 62 64 73 88 97 100 103 106 109 112 108 106 102 98 96 97 97 101 103 98 97 95 86 99 96 98 98 99 101 99 97 95 92 91 91 87 86 86 81 74 71 71
Wind_Direction
237 239 240 241 244 248 250 253 255 256 256 259 262 263 263 260 255 255 254 255 260 265 266 266 284 285 303 324 333 2 14 15 28 34 42 49 47 57 44 50 56 57 54 54
238 240 241 242 243 245 249 252 254 255 257 257 259 263 263 262 263 262 257 251 254 257 261 260 267 285 244 306 303 345 347 3 19 12 34 39 38 52 47 38 49 56 55 57
240 242 242 242 244 246 248 252 251 254 256 257 259 261 262 263 263 260 256 245 244 250 243 248 272 275 244 277 267 181 350 349 6 26 16 32 34 32 60 47 40 48 45 45
240 243 243 243 243 246 248 250 251 251 254 258 258 257 255 258 259 258 254 248 242 243 232 241 259 267 264 262 244 249 300 343 354 350 10 12 27 12 31 54 51 30 38 38
241 241 243 243 244 244 245 247 249 249 249 251 252 251 251 249 254 254 254 247 243 237 234 238 256 252 257 248 241 251 243 312 340 347 357 360 6 4 359 359 40 20 29 31
241 243 244 246 245 245 246 247 249 249 249 247 249 250 250 248 245 246 247 247 245 241 236 241 250 249 226 239 241 234 238 278 304 332 339 341 346 5 349 323 326 323 355 356
242 242 244 246 247 245 247 247 246 248 248 245 246 245 245 244 247 245 246 249 248 247 242 245 250 216 218 232 235 246 257 276 291 295 326 308 319 350 358 316 281 273 275 294
240 241 243 243 244 244 244 243 242 240 238 241 240 240 241 241 244 247 248 248 246 248 245 228 231 216 218 228 234 248 258 269 275 290 311 306 320 298 313 340 306 283 266 262
237 237 239 241 241 242 242 242 239 238 236 240 237 239 237 236 236 240 246 248 247 234 225 230 221 207 237 230 230 243 252 251 267 273 296 295 305 293 285 284 298 294 272 266
236 235 237 238 239 242 242 239 240 239 236 237 235 240 235 233 234 237 241 244 245 238 224 209 205 213 239 222 234 239 244 254 266 273 285 292 291 307 269 270 275 286 296 275
234 234 235 238 241 241 242 241 239 238 237 235 233 236 234 233 230 234 239 242 244 244 229 211 222 233 227 232 237 239 251 253 261 270 282 283 291 308 284 262 258 281 302 289
232 232 233 234 235 238 240 239 238 235 231 232 231 233 235 233 231 232 239 242 240 241 247 225 230 230 231 233 237 235 242 250 259 264 285 277 285 300 281 274 268 281 284 281
230 230 231 233 235 236 238 239 239 237 234 232 232 232 234 233 231 233 237 240 240 243 246 243 225 230 231 238 241 240 240 246 252 265 271 278 286 285 279 281 269 276 258 281
231 230 230 231 232 235 236 236 236 236 233 233 233 235 233 235 234 234 236 243 242 239 243 243 236 231 236 238 238 240 238 240 254 265 266 279 279 278 278 272 281 266 268 273
231 230 229 230 231 234 235 236 236 235 231 228 228 232 236 232 234 234 235 240 242 242 241 243 240 233 225 231 240 244 244 250 256 257 260 271 265 267 273 269 279 272 267 277
230 230 230 229 231 233 233 235 236 237 235 230 228 226 233 232 230 232 236 240 242 244 244 242 244 240 233 232 233 237 242 247 248 258 253 258 268 267 270 273 278 270 272 275
230 230 229 229 231 232 233 234 236 236 236 233 231 229 228 233 231 230 232 238 243 244 244 241 241 244 243 240 239 239 245 251 251 242 244 246 254 257 262 264 270 274 276 275
229 231 231 231 230 232 233 234 236 237 236 235 232 232 230 228 233 232 231 234 238 241 245 243 240 242 243 243 244 248 250 249 231 229 243 252 256 258 257 261 266 274 278 277
227 229 229 230 232 233 233 234 235 236 237 237 234 231 231 229 230 233 232 232 237 240 241 244 241 241 241 244 245 243 246 239 231 232 242 256 258 259 261 258 265 271 274 279
227 226 228 230 231 231 232 234 234 235 236 237 235 233 232 230 229 230 231 231 232 236 240 241 241 240 241 241 244 245 244 239 239 239 241 256 259 258 258 260 263 269 273 278
226 226 226 227 230 231 230 233 234 235 235 236 236 235 235 234 231 232 231 232 231 232 235 233 233 238 241 240 240 240 241 242 242 243 249 252 254 255 255 258 262 261 264 273
225 225 226 227 228 229 230 232 234 234 235 236 237 236 235 235 232 232 231 232 232 230 231 235 239 238 237 239 240 240 243 243 246 243 246 250 253 251 252 256 257 261 266 268
226 224 224 227 227 228 229 231 233 236 235 235 236 236 235 236 236 234 234 232 233 232 232 235 237 238 239 238 238 241 242 243 244 246 246 246 250 253 256 261 260 264 267 268
221 224 222 223 226 227 228 229 230 232 235 234 234 233 232 232 234 235 234 234 235 233 234 236 239 239 237 237 239 239 239 241 244 245 247 247 248 250 253 254 254 257 261 262
216 219 220 221 222 225 227 227 228 230 231 235 233 234 233 232 231 232 233 233 232 233 234 234 237 239 241 240 239 240 241 240 240 242 245 247 249 249 251 254 255 258 260 261
211 214 217 218 220 222 225 226 227 229 229 230 231 233 234 232 232 231 232 234 233 231 231 230 224 235 234 238 239 241 241 242 242 243 244 246 249 251 252 253 256 256 260 261
Height
10926 10931 10934 10935 10943 10949 10954 10959 10967 10972 10978 10983 10987 10991 10995 10999 11003 11005 11008 11010 11010 11014 11017 11020 11018 11019 11018 11017 11016 11018 11016 11015 11015 11014 11014 11014 11012 11011 11011 11009 11006 11005 11004 11002
10914 10920 10917 10925 10934 10942 10946 10949 10956 10963 10969 10975 10981 10983 10987 10991 10995 10999 11001 11003 11006 11009 11013 11015 11018 11017 11017 11018 11017 11015 11016 11017 11015 11016 11015 11014 11015 11013 11012 11011 11009 11008 11009 11009
10900 10901 10907 10917 10926 10933 10939 10939 10947 10954 10962 10966 10972 10976 10978 10981 10985 10991 10995 10997 11000 11004 11008 11012 11013 11015 11015 11017 11017 11017 11015 11016 11016 11017 11015 11014 11014 11015 11014 11014 11012 11010 11011 11011
10885 10890 10897 10905 10916 10921 10927 10928 10937 10945 10953 10958 10962 10968 10971 10972 10977 10982 10986 10990 10993 10998 11003 11006 11009 11012 11013 11015 11015 11016 11015 11015 11015 11017 11016 11015 11015 11015 11014 11014 11014 11014 11013 11012
10874 10878 10880 10890 10900 10907 10913 10919 10928 10936 10945 10950 10951 10956 10961 10965 10968 10973 10977 10982 10986 10991 10996 10999 11003 11008 11011 11011 11012 11013 11013 11013 11015 11016 11016 11015 11015 11013 11013 11013 11014 11016 11015 11015
10858 10863 10869 10876 10884 10896 10901 10911 10920 10927 10936 10940 10943 10948 10952 10956 10961 10966 10970 10974 10980 10984 10990 10993 10997 11000 11005 11006 11007 11008 11010 11010 11012 11015 11016 11016 11015 11014 11011 11011 11012 11013 11014 11015
10845 10851 10855 10861 10868 10882 10888 10899 10909 10916 10925 10928 10936 10940 10944 10949 10954 10958 10961 10965 10971 10976 10981 10986 10990 10993 10997 11001 11003 11005 11007 11008 11009 11011 11014 11014 11013 11012 11012 11011 11011 11012 11013 11014
10824 10835 10840 10847 10853 10864 10869 10881 10895 10904 10910 10912 10926 10930 10936 10944 10948 10949 10952 10957 10961 10966 10972 10978 10985 10988 10991 10994 10997 11000 11003 11006 11007 11009 11009 11011 11011 11010 11010 11010 11012 11012 11012 11014
10804 10819 10822 10828 10833 10840 10855 10870 10881 10890 10897 10903 10917 10917 10930 10935 10939 10944 10948 10950 10954 10959 10966 10973 10978 10983 10986 10989 10991 10995 10998 11000 11003 11006 11007 11007 11007 11008 11008 11008 11008 11009 11010 11010
10786 10799 10803 10809 10814 10823 10840 10851 10863 10878 10889 10896 10906 10907 10920 10925 10930 10937 10939 10943 10948 10953 10960 10965 10971 10978 10981 10984 10987 10990 10993 10996 10999 11001 11003 11003 11003 11005 11006 11006 11005 11005 11007 11008
10766 10779 10786 10796 10806 10812 10822 10836 10850 10865 10877 10885 10892 10898 10906 10914 10922 10927 10931 10936 10941 10944 10950 10959 10965 10969 10974 10977 10979 10984 10988 10992 10994 10996 10999 10998 10998 10999 11001 11002 11003 11003 11004 11005
10743 10757 10770 10777 10783 10791 10803 10819 10831 10845 10861 10869 10881 10890 10894 10903 10911 10919 10923 10927 10932 10937 10941 10948 10954 10958 10964 10968 10973 10977 10980 10984 10987 10989 10992 10994 10992 10992 10995 10995 10997 10998 10999 11000
10721 10735 10748 10755 10764 10777 10788 10802 10814 10831 10845 10860 10869 10878 10882 10890 10899 10908 10912 10916 10923 10929 10935 10939 10944 10947 10953 10958 10964 10967 10971 10974 10977 10981 10983 10986 10987 10986 10987 10989 10990 10992 10994 10994
10695 10715 10728 10740 10752 10751 10763 10778 10792 10807 10828 10845 10861 10865 10871 10878 10887 10896 10900 10904 10912 10921 10924 10929 10934 10938 10942 10948 10953 10957 10961 10966 10969 10971 10974 10976 10979 10980 10980 10982 10983 10985 10987 10988
10671 10687 10704 10719 10725 10731 10747 10758 10770 10787 10807 10825 10839 10850 10853 10865 10874 10882 10886 10890 10897 10905 10913 10918 10923 10927 10930 10937 10941 10947 10953 10955 10959 10963 10965 10967 10971 10972 10972 10974 10975 10977 10978 10979
10644 10660 10678 10695 10700 10712 10727 10737 10750 10766 10787 10806 10820 10833 10838 10848 10858 10867 10872 10878 10885 10892 10898 10906 10911 10916 10920 10926 10930 10937 10943 10946 10950 10954 10957 10959 10957 10960 10962 10964 10967 10969 10970 10971
10619 10633 10652 10670 10678 10688 10701 10717 10731 10747 10766 10786 10802 10814 10824 10830 10844 10853 10861 10866 10872 10878 10880 10892 10899 10904 10910 10914 10919 10925 10930 10936 10940 10944 10947 10949 10951 10949 10950 10954 10956 10957 10959 10961
10593 10611 10630 10644 10651 10665 10689 10698 10712 10726 10743 10761 10783 10794 10807 10820 10828 10838 10848 10854 10857 10862 10864 10875 10885 10891 10897 10902 10905 10910 10917 10923 10927 10931 10933 10938 10940 10941 10941 10942 10945 10948 10949 10949
10567 10586 10604 10617 10631 10654 10664 10677 10692 10705 10722 10740 10758 10774 10788 10804 10812 10824 10834 10840 10845 10846 10850 10856 10868 10874 10882 10887 10892 10900 10905 10911 10915 10919 10924 10927 10929 10931 10933 10934 10935 10937 10940 10939
10544 10563 10578 10596 10609 10628 10645 10655 10669 10685 10700 10715 10734 10754 10768 10782 10798 10805 10814 10821 10828 10831 10833 10840 10849 10857 10864 10872 10876 10884 10891 10896 10901 10905 10909 10915 10917 10920 10921 10923 10926 10928 10929 10928
10522 10540 10557 10572 10588 10611 10628 10634 10648 10662 10683 10692 10711 10732 10747 10761 10780 10785 10796 10801 10809 10815 10819 10821 10829 10839 10845 10852 10859 10865 10868 10879 10885 10890 10895 10898 10902 10905 10908 10912 10913 10916 10917 10916
10504 10521 10537 10554 10571 10591 10608 10621 10631 10646 10662 10672 10689 10708 10722 10735 10751 10758 10771 10778 10786 10795 10800 10803 10811 10816 10824 10832 10839 10846 10853 10859 10864 10871 10877 10882 10887 10889 10893 10897 10898 10898 10904 10905
10489 10502 10520 10538 10556 10572 10589 10602 10614 10627 10646 10655 10668 10684 10700 10714 10728 10739 10748 10756 10764 10773 10780 10785 10791 10794 10803 10812 10821 10827 10835 10841 10846 10851 10858 10864 10868 10871 10875 10880 10883 10885 10887 10891
10476 10489 10506 10520 10538 10550 10565 10583 10593 10606 10617 10628 10640 10657 10672 10686 10699 10715 10725 10733 10740 10749 10757 10765 10769 10773 10783 10790 10797 10805 10814 10823 10827 10832 10838 10845 10850 10855 10859 10864 10868 10872 10874 10878
10466 10477 10492 10505 10518 10530 10542 10559 10569 10580 10593 10599 10617 10630 10646 10662 10673 10685 10696 10702 10713 10724 10734 10743 10751 10755 10758 10767 10776 10783 10790 10799 10805 10813 10819 10825 10831 10837 10840 10845 10850 10856 10860 10863
10457 10467 10477 10490 10501 10509 10517 10532 10542 10552 10562 10572 10591 10604 10619 10636 10652 10661 10671 10681 10692 10703 10711 10718 10725 10725 10732 10738 10747 10757 10765 10773 10781 10791 10799 10807 10810 10817 10821 10826 10833 10839 10844 10847